owner,sensor,date,latitude,longitude,air_pressure(mBar),qcFlag 
TABS,ioos:station:wmo:42043:1,2009-01-01T00:00:00Z,28.9818,-94.9186,1022.36,11111222 
TABS,ioos:station:wmo:42043:1,2009-01-01T00:30:00Z,28.9818,-94.9186,1022.41,11111222 
TABS,ioos:station:wmo:42043:1,2009-01-01T01:00:00Z,28.9818,-94.9186,1022.57,11111222 
TABS,ioos:station:wmo:42043:1,2009-01-01T01:30:00Z,28.9818,-94.9186,1022.6,11111222 
TABS,ioos:station:wmo:42043:1,2009-01-01T02:00:00Z,28.9818,-94.9186,1022.64,11111222 
TABS,ioos:station:wmo:42043:1,2009-01-01T02:30:00Z,28.9818,-94.9186,1022.62,11111222 
TABS,ioos:station:wmo:42043:1,2009-01-01T03:00:00Z,28.9818,-94.9186,1022.44,11111222 
TABS,ioos:station:wmo:42043:1,2009-01-01T03:30:00Z,28.9818,-94.9186,1022.52,11111222 
TABS,ioos:station:wmo:42043:1,2009-01-01T04:00:00Z,28.9818,-94.9186,1022.59,11111222 
TABS,ioos:station:wmo:42043:1,2009-01-01T04:30:00Z,28.9818,-94.9186,1022.66,11111222 
TABS,ioos:station:wmo:42043:1,2009-01-01T05:00:00Z,28.9818,-94.9186,1021.76,11111222 
TABS,ioos:station:wmo:42043:1,2009-01-01T05:30:00Z,28.9818,-94.9186,1021.43,11111222 
TABS,ioos:station:wmo:42043:1,2009-01-01T06:00:00Z,28.9818,-94.9186,1020.93,11111222 
TABS,ioos:station:wmo:42043:1,2009-01-01T06:30:00Z,28.9818,-94.9186,1021.01,11111222 
TABS,ioos:station:wmo:42043:1,2009-01-01T07:00:00Z,28.9818,-94.9186,1020.69,11111222 
TABS,ioos:station:wmo:42043:1,2009-01-01T07:30:00Z,28.9818,-94.9186,1020.18,11111222 
TABS,ioos:station:wmo:42043:1,2009-01-01T08:00:00Z,28.9818,-94.9186,1019.86,11111222 
TABS,ioos:station:wmo:42043:1,2009-01-01T08:30:00Z,28.9818,-94.9186,1019.71,11111222 
TABS,ioos:station:wmo:42043:1,2009-01-01T09:00:00Z,28.9818,-94.9186,1019.69,11111222 
TABS,ioos:station:wmo:42043:1,2009-01-01T09:30:00Z,28.9818,-94.9186,1019.39,11111222 
TABS,ioos:station:wmo:42043:1,2009-01-01T10:00:00Z,28.9818,-94.9186,1019.07,11111222 
TABS,ioos:station:wmo:42043:1,2009-01-01T10:30:00Z,28.9818,-94.9186,1019.12,11111222 
TABS,ioos:station:wmo:42043:1,2009-01-01T11:00:00Z,28.9818,-94.9186,1019.06,11111222 
TABS,ioos:station:wmo:42043:1,2009-01-01T11:30:00Z,28.9818,-94.9186,1019.06,11111222 
TABS,ioos:station:wmo:42043:1,2009-01-01T12:00:00Z,28.9818,-94.9186,1019.17,11111222 
TABS,ioos:station:wmo:42043:1,2009-01-01T12:30:00Z,28.9818,-94.9186,1018.78,11111222 
TABS,ioos:station:wmo:42043:1,2009-01-01T13:00:00Z,28.9818,-94.9186,1019.21,11111222 
TABS,ioos:station:wmo:42043:1,2009-01-01T13:30:00Z,28.9818,-94.9186,1019.44,11111222 
TABS,ioos:station:wmo:42043:1,2009-01-01T14:00:00Z,28.9818,-94.9186,1019.8,11111222 
TABS,ioos:station:wmo:42043:1,2009-01-01T14:30:00Z,28.9818,-94.9186,1019.71,11111222 
TABS,ioos:station:wmo:42043:1,2009-01-01T15:00:00Z,28.9818,-94.9186,1019.84,11111222 
TABS,ioos:station:wmo:42043:1,2009-01-01T15:30:00Z,28.9818,-94.9186,1019.73,11111222 
TABS,ioos:station:wmo:42043:1,2009-01-01T16:00:00Z,28.9818,-94.9186,1019.51,11111222 
TABS,ioos:station:wmo:42043:1,2009-01-01T16:30:00Z,28.9818,-94.9186,1019.4,11111222 
TABS,ioos:station:wmo:42043:1,2009-01-01T17:00:00Z,28.9818,-94.9186,1018.81,11111222 
TABS,ioos:station:wmo:42043:1,2009-01-01T17:30:00Z,28.9818,-94.9186,1018.24,11111222 
TABS,ioos:station:wmo:42043:1,2009-01-01T18:00:00Z,28.9818,-94.9186,1017.38,11111222 
TABS,ioos:station:wmo:42043:1,2009-01-01T18:30:00Z,28.9818,-94.9186,1016.87,11111222 
TABS,ioos:station:wmo:42043:1,2009-01-01T19:00:00Z,28.9818,-94.9186,1016.29,11111222 
TABS,ioos:station:wmo:42043:1,2009-01-01T19:30:00Z,28.9818,-94.9186,1015.6,11111222 
TABS,ioos:station:wmo:42043:1,2009-01-01T20:00:00Z,28.9818,-94.9186,1015.35,11111222 
TABS,ioos:station:wmo:42043:1,2009-01-01T20:30:00Z,28.9818,-94.9186,1015.05,11111222 
TABS,ioos:station:wmo:42043:1,2009-01-01T21:00:00Z,28.9818,-94.9186,1014.98,11111222 
TABS,ioos:station:wmo:42043:1,2009-01-01T21:30:00Z,28.9818,-94.9186,1014.91,11111222 
TABS,ioos:station:wmo:42043:1,2009-01-01T22:00:00Z,28.9818,-94.9186,1014.69,11111222 
TABS,ioos:station:wmo:42043:1,2009-01-01T22:30:00Z,28.9818,-94.9186,1014.7,11111222 
TABS,ioos:station:wmo:42043:1,2009-01-01T23:00:00Z,28.9818,-94.9186,1014.42,11111222 
TABS,ioos:station:wmo:42043:1,2009-01-01T23:30:00Z,28.9818,-94.9186,1014.13,11111222 
TABS,ioos:station:wmo:42043:1,2009-01-02T00:00:00Z,28.9818,-94.9186,1013.88,11111222 
TABS,ioos:station:wmo:42043:1,2009-01-02T00:30:00Z,28.9818,-94.9186,1014.09,11111222 
TABS,ioos:station:wmo:42043:1,2009-01-02T01:00:00Z,28.9818,-94.9186,1014.14,11111222 
TABS,ioos:station:wmo:42043:1,2009-01-02T01:30:00Z,28.9818,-94.9186,1013.96,11111222 
TABS,ioos:station:wmo:42043:1,2009-01-02T02:00:00Z,28.9818,-94.9186,1013.98,11111222 
TABS,ioos:station:wmo:42043:1,2009-01-02T02:30:00Z,28.9818,-94.9186,1013.93,11111222 
TABS,ioos:station:wmo:42043:1,2009-01-02T03:00:00Z,28.9818,-94.9186,1013.81,11111222 
TABS,ioos:station:wmo:42043:1,2009-01-02T03:30:00Z,28.9818,-94.9186,1013.55,11111222 
TABS,ioos:station:wmo:42043:1,2009-01-02T04:00:00Z,28.9818,-94.9186,1013.42,11111222 
TABS,ioos:station:wmo:42043:1,2009-01-02T04:30:00Z,28.9818,-94.9186,1013.4,11111222 
TABS,ioos:station:wmo:42043:1,2009-01-02T05:00:00Z,28.9818,-94.9186,1013.59,11111222 
TABS,ioos:station:wmo:42043:1,2009-01-02T05:30:00Z,28.9818,-94.9186,1013.15,11111222 
TABS,ioos:station:wmo:42043:1,2009-01-02T06:00:00Z,28.9818,-94.9186,1013.1,11111222 
TABS,ioos:station:wmo:42043:1,2009-01-02T06:30:00Z,28.9818,-94.9186,1012.58,11111222 
TABS,ioos:station:wmo:42043:1,2009-01-02T07:00:00Z,28.9818,-94.9186,1013.14,11111222 
TABS,ioos:station:wmo:42043:1,2009-01-02T07:30:00Z,28.9818,-94.9186,1013.37,11111222 
TABS,ioos:station:wmo:42043:1,2009-01-02T08:00:00Z,28.9818,-94.9186,1013.43,11111222 
TABS,ioos:station:wmo:42043:1,2009-01-02T08:30:00Z,28.9818,-94.9186,1013.6,11111222 
TABS,ioos:station:wmo:42043:1,2009-01-02T09:00:00Z,28.9818,-94.9186,1013.53,11111222 
TABS,ioos:station:wmo:42043:1,2009-01-02T09:30:00Z,28.9818,-94.9186,1013.46,11111222 
TABS,ioos:station:wmo:42043:1,2009-01-02T10:00:00Z,28.9818,-94.9186,1013.37,11111222 
TABS,ioos:station:wmo:42043:1,2009-01-02T10:30:00Z,28.9818,-94.9186,1013.5,11111222 
TABS,ioos:station:wmo:42043:1,2009-01-02T11:00:00Z,28.9818,-94.9186,1013.48,11111222 
TABS,ioos:station:wmo:42043:1,2009-01-02T11:30:00Z,28.9818,-94.9186,1013.84,11111222 
TABS,ioos:station:wmo:42043:1,2009-01-02T12:00:00Z,28.9818,-94.9186,1014.17,11111222 
TABS,ioos:station:wmo:42043:1,2009-01-02T12:30:00Z,28.9818,-94.9186,1014.04,11111222 
TABS,ioos:station:wmo:42043:1,2009-01-02T13:00:00Z,28.9818,-94.9186,1014.2,11111222 
TABS,ioos:station:wmo:42043:1,2009-01-02T13:30:00Z,28.9818,-94.9186,1014.3,11111222 
TABS,ioos:station:wmo:42043:1,2009-01-02T14:00:00Z,28.9818,-94.9186,1014.37,11111222 
TABS,ioos:station:wmo:42043:1,2009-01-02T14:30:00Z,28.9818,-94.9186,1014.4,11111222 
TABS,ioos:station:wmo:42043:1,2009-01-02T15:00:00Z,28.9818,-94.9186,1014.69,11111222 
TABS,ioos:station:wmo:42043:1,2009-01-02T15:30:00Z,28.9818,-94.9186,1014.79,11111222 
TABS,ioos:station:wmo:42043:1,2009-01-02T16:00:00Z,28.9818,-94.9186,1015.02,11111222 
TABS,ioos:station:wmo:42043:1,2009-01-02T16:30:00Z,28.9818,-94.9186,1014.89,11111222 
TABS,ioos:station:wmo:42043:1,2009-01-02T17:00:00Z,28.9818,-94.9186,1014.66,11111222 
TABS,ioos:station:wmo:42043:1,2009-01-02T17:30:00Z,28.9818,-94.9186,1014.24,11111222 
TABS,ioos:station:wmo:42043:1,2009-01-02T18:00:00Z,28.9818,-94.9186,1013.83,11111222 
TABS,ioos:station:wmo:42043:1,2009-01-02T18:30:00Z,28.9818,-94.9186,1013.14,11111222 
TABS,ioos:station:wmo:42043:1,2009-01-02T19:00:00Z,28.9818,-94.9186,1012.65,11111222 
TABS,ioos:station:wmo:42043:1,2009-01-02T19:30:00Z,28.9818,-94.9186,1012.31,11111222 
TABS,ioos:station:wmo:42043:1,2009-01-02T20:00:00Z,28.9818,-94.9186,1012.14,11111222 
TABS,ioos:station:wmo:42043:1,2009-01-02T20:30:00Z,28.9818,-94.9186,1012.0,11111222 
TABS,ioos:station:wmo:42043:1,2009-01-02T21:00:00Z,28.9818,-94.9186,1011.85,11111222 
TABS,ioos:station:wmo:42043:1,2009-01-02T21:30:00Z,28.9818,-94.9186,1011.92,11111222 
TABS,ioos:station:wmo:42043:1,2009-01-02T22:00:00Z,28.9818,-94.9186,1011.74,11111222 
TABS,ioos:station:wmo:42043:1,2009-01-02T22:30:00Z,28.9818,-94.9186,1011.53,11111222 
TABS,ioos:station:wmo:42043:1,2009-01-02T23:00:00Z,28.9818,-94.9186,1011.44,11111222 
TABS,ioos:station:wmo:42043:1,2009-01-02T23:30:00Z,28.9818,-94.9186,1011.74,11111222 
TABS,ioos:station:wmo:42043:1,2009-01-03T00:00:00Z,28.9818,-94.9186,1011.88,11111222 
TABS,ioos:station:wmo:42043:1,2009-01-03T00:30:00Z,28.9818,-94.9186,1011.69,11111222 
TABS,ioos:station:wmo:42043:1,2009-01-03T01:00:00Z,28.9818,-94.9186,1011.59,11111222 
TABS,ioos:station:wmo:42043:1,2009-01-03T01:30:00Z,28.9818,-94.9186,1011.68,11111222 
TABS,ioos:station:wmo:42043:1,2009-01-03T02:00:00Z,28.9818,-94.9186,1011.69,11111222 
TABS,ioos:station:wmo:42043:1,2009-01-03T02:30:00Z,28.9818,-94.9186,1011.92,11111222 
TABS,ioos:station:wmo:42043:1,2009-01-03T03:00:00Z,28.9818,-94.9186,1011.92,11111222 
TABS,ioos:station:wmo:42043:1,2009-01-03T03:30:00Z,28.9818,-94.9186,1012.05,11111222 
TABS,ioos:station:wmo:42043:1,2009-01-03T04:00:00Z,28.9818,-94.9186,1012.01,11111222 
TABS,ioos:station:wmo:42043:1,2009-01-03T04:30:00Z,28.9818,-94.9186,1012.01,11111222 
TABS,ioos:station:wmo:42043:1,2009-01-03T05:00:00Z,28.9818,-94.9186,1011.78,11111222 
TABS,ioos:station:wmo:42043:1,2009-01-03T05:30:00Z,28.9818,-94.9186,1011.85,11111222 
TABS,ioos:station:wmo:42043:1,2009-01-03T06:00:00Z,28.9818,-94.9186,1011.58,11111222 
TABS,ioos:station:wmo:42043:1,2009-01-03T06:30:00Z,28.9818,-94.9186,1011.33,11111222 
TABS,ioos:station:wmo:42043:1,2009-01-03T07:00:00Z,28.9818,-94.9186,1011.06,11111222 
TABS,ioos:station:wmo:42043:1,2009-01-03T07:30:00Z,28.9818,-94.9186,1010.88,11111222 
TABS,ioos:station:wmo:42043:1,2009-01-03T08:00:00Z,28.9818,-94.9186,1010.93,11111222 
TABS,ioos:station:wmo:42043:1,2009-01-03T08:30:00Z,28.9818,-94.9186,1011.05,11111222 
TABS,ioos:station:wmo:42043:1,2009-01-03T09:00:00Z,28.9818,-94.9186,1010.9,11111222 
TABS,ioos:station:wmo:42043:1,2009-01-03T09:30:00Z,28.9818,-94.9186,1011.05,11111222 
TABS,ioos:station:wmo:42043:1,2009-01-03T10:00:00Z,28.9818,-94.9186,1010.88,11111222 
TABS,ioos:station:wmo:42043:1,2009-01-03T10:30:00Z,28.9818,-94.9186,1010.79,11111222 
TABS,ioos:station:wmo:42043:1,2009-01-03T11:00:00Z,28.9818,-94.9186,1010.13,11111222 
TABS,ioos:station:wmo:42043:1,2009-01-03T11:30:00Z,28.9818,-94.9186,1009.95,11111222 
TABS,ioos:station:wmo:42043:1,2009-01-03T12:00:00Z,28.9818,-94.9186,1009.88,11111222 
TABS,ioos:station:wmo:42043:1,2009-01-03T12:30:00Z,28.9818,-94.9186,1009.98,11111222 
TABS,ioos:station:wmo:42043:1,2009-01-03T13:00:00Z,28.9818,-94.9186,1009.33,11111222 
TABS,ioos:station:wmo:42043:1,2009-01-03T13:30:00Z,28.9818,-94.9186,1008.89,11111222 
TABS,ioos:station:wmo:42043:1,2009-01-03T14:00:00Z,28.9818,-94.9186,1008.61,11111222 
TABS,ioos:station:wmo:42043:1,2009-01-03T14:30:00Z,28.9818,-94.9186,1009.45,11111222 
TABS,ioos:station:wmo:42043:1,2009-01-03T15:00:00Z,28.9818,-94.9186,1009.86,11111222 
TABS,ioos:station:wmo:42043:1,2009-01-03T15:30:00Z,28.9818,-94.9186,1009.9,11111222 
TABS,ioos:station:wmo:42043:1,2009-01-03T16:00:00Z,28.9818,-94.9186,1010.0,11111222 
TABS,ioos:station:wmo:42043:1,2009-01-03T16:30:00Z,28.9818,-94.9186,1009.94,11111222 
TABS,ioos:station:wmo:42043:1,2009-01-03T17:00:00Z,28.9818,-94.9186,1010.05,11111222 
TABS,ioos:station:wmo:42043:1,2009-01-03T17:30:00Z,28.9818,-94.9186,1009.88,11111222 
TABS,ioos:station:wmo:42043:1,2009-01-03T18:00:00Z,28.9818,-94.9186,1009.68,11111222 
TABS,ioos:station:wmo:42043:1,2009-01-03T18:30:00Z,28.9818,-94.9186,1009.85,11111222 
TABS,ioos:station:wmo:42043:1,2009-01-03T19:00:00Z,28.9818,-94.9186,1009.69,11111222 
TABS,ioos:station:wmo:42043:1,2009-01-03T19:30:00Z,28.9818,-94.9186,1009.27,11111222 
TABS,ioos:station:wmo:42043:1,2009-01-03T20:00:00Z,28.9818,-94.9186,1009.39,11111222 
TABS,ioos:station:wmo:42043:1,2009-01-03T20:30:00Z,28.9818,-94.9186,1009.28,11111222 
TABS,ioos:station:wmo:42043:1,2009-01-03T21:00:00Z,28.9818,-94.9186,1009.39,11111222 
TABS,ioos:station:wmo:42043:1,2009-01-03T21:30:00Z,28.9818,-94.9186,1009.3,11111222 
TABS,ioos:station:wmo:42043:1,2009-01-03T22:00:00Z,28.9818,-94.9186,1009.36,11111222 
TABS,ioos:station:wmo:42043:1,2009-01-03T22:30:00Z,28.9818,-94.9186,1009.49,11111222 
TABS,ioos:station:wmo:42043:1,2009-01-03T23:00:00Z,28.9818,-94.9186,1009.47,11111222 
TABS,ioos:station:wmo:42043:1,2009-01-03T23:30:00Z,28.9818,-94.9186,1009.52,11111222 
TABS,ioos:station:wmo:42043:1,2009-01-04T00:00:00Z,28.9818,-94.9186,1009.9,11111222 
TABS,ioos:station:wmo:42043:1,2009-01-04T00:30:00Z,28.9818,-94.9186,1010.05,11111222 
TABS,ioos:station:wmo:42043:1,2009-01-04T01:00:00Z,28.9818,-94.9186,1010.27,11111222 
TABS,ioos:station:wmo:42043:1,2009-01-04T01:30:00Z,28.9818,-94.9186,1010.54,11111222 
TABS,ioos:station:wmo:42043:1,2009-01-04T02:00:00Z,28.9818,-94.9186,1010.64,11111222 
TABS,ioos:station:wmo:42043:1,2009-01-04T02:30:00Z,28.9818,-94.9186,1010.59,11111222 
TABS,ioos:station:wmo:42043:1,2009-01-04T03:00:00Z,28.9818,-94.9186,1010.68,11111222 
TABS,ioos:station:wmo:42043:1,2009-01-04T03:30:00Z,28.9818,-94.9186,1010.89,11111222 
TABS,ioos:station:wmo:42043:1,2009-01-04T04:00:00Z,28.9818,-94.9186,1011.1,11111222 
TABS,ioos:station:wmo:42043:1,2009-01-04T04:30:00Z,28.9818,-94.9186,1011.42,11111222 
TABS,ioos:station:wmo:42043:1,2009-01-04T05:00:00Z,28.9818,-94.9186,1011.43,11111222 
TABS,ioos:station:wmo:42043:1,2009-01-04T05:30:00Z,28.9818,-94.9186,1011.48,11111222 
TABS,ioos:station:wmo:42043:1,2009-01-04T06:00:00Z,28.9818,-94.9186,1011.37,11111222 
TABS,ioos:station:wmo:42043:1,2009-01-04T06:30:00Z,28.9818,-94.9186,1011.43,11111222 
TABS,ioos:station:wmo:42043:1,2009-01-04T07:00:00Z,28.9818,-94.9186,1011.31,11111222 
TABS,ioos:station:wmo:42043:1,2009-01-04T07:30:00Z,28.9818,-94.9186,1011.2,11111222 
TABS,ioos:station:wmo:42043:1,2009-01-04T08:00:00Z,28.9818,-94.9186,1011.5,11111222 
TABS,ioos:station:wmo:42043:1,2009-01-04T08:30:00Z,28.9818,-94.9186,1011.69,11111222 
TABS,ioos:station:wmo:42043:1,2009-01-04T09:00:00Z,28.9818,-94.9186,1011.67,11111222 
TABS,ioos:station:wmo:42043:1,2009-01-04T09:30:00Z,28.9818,-94.9186,1011.81,11111222 
TABS,ioos:station:wmo:42043:1,2009-01-04T10:00:00Z,28.9818,-94.9186,1011.91,11111222 
TABS,ioos:station:wmo:42043:1,2009-01-04T10:30:00Z,28.9818,-94.9186,1011.91,11111222 
TABS,ioos:station:wmo:42043:1,2009-01-04T11:00:00Z,28.9818,-94.9186,1012.21,11111222 
TABS,ioos:station:wmo:42043:1,2009-01-04T11:30:00Z,28.9818,-94.9186,1012.61,11111222 
TABS,ioos:station:wmo:42043:1,2009-01-04T12:00:00Z,28.9818,-94.9186,1012.94,11111222 
TABS,ioos:station:wmo:42043:1,2009-01-04T12:30:00Z,28.9818,-94.9186,1013.36,11111222 
TABS,ioos:station:wmo:42043:1,2009-01-04T13:00:00Z,28.9818,-94.9186,1013.9,11111222 
TABS,ioos:station:wmo:42043:1,2009-01-04T13:30:00Z,28.9818,-94.9186,1014.6,11111222 
TABS,ioos:station:wmo:42043:1,2009-01-04T14:00:00Z,28.9818,-94.9186,1015.05,11111222 
TABS,ioos:station:wmo:42043:1,2009-01-04T14:30:00Z,28.9818,-94.9186,1015.57,11111222 
TABS,ioos:station:wmo:42043:1,2009-01-04T15:00:00Z,28.9818,-94.9186,1015.98,11111222 
TABS,ioos:station:wmo:42043:1,2009-01-04T15:30:00Z,28.9818,-94.9186,1016.05,11111222 
TABS,ioos:station:wmo:42043:1,2009-01-04T16:00:00Z,28.9818,-94.9186,1016.58,11111222 
TABS,ioos:station:wmo:42043:1,2009-01-04T16:30:00Z,28.9818,-94.9186,1016.77,11111222 
TABS,ioos:station:wmo:42043:1,2009-01-04T17:00:00Z,28.9818,-94.9186,1016.63,11111222 
TABS,ioos:station:wmo:42043:1,2009-01-04T17:30:00Z,28.9818,-94.9186,1016.41,11111222 
TABS,ioos:station:wmo:42043:1,2009-01-04T18:00:00Z,28.9818,-94.9186,1016.23,11111222 
TABS,ioos:station:wmo:42043:1,2009-01-04T18:30:00Z,28.9818,-94.9186,1015.69,11111222 
TABS,ioos:station:wmo:42043:1,2009-01-04T19:00:00Z,28.9818,-94.9186,1015.45,11111222 
TABS,ioos:station:wmo:42043:1,2009-01-04T19:30:00Z,28.9818,-94.9186,1015.31,11111222 
TABS,ioos:station:wmo:42043:1,2009-01-04T20:00:00Z,28.9818,-94.9186,1015.01,11111222 
TABS,ioos:station:wmo:42043:1,2009-01-04T20:30:00Z,28.9818,-94.9186,1014.91,11111222 
TABS,ioos:station:wmo:42043:1,2009-01-04T21:00:00Z,28.9818,-94.9186,1014.91,11111222 
TABS,ioos:station:wmo:42043:1,2009-01-04T21:30:00Z,28.9818,-94.9186,1015.4,11111222 
TABS,ioos:station:wmo:42043:1,2009-01-04T22:00:00Z,28.9818,-94.9186,1015.66,11111222 
TABS,ioos:station:wmo:42043:1,2009-01-04T22:30:00Z,28.9818,-94.9186,1015.93,11111222 
TABS,ioos:station:wmo:42043:1,2009-01-04T23:00:00Z,28.9818,-94.9186,1016.03,11111222 
TABS,ioos:station:wmo:42043:1,2009-01-04T23:30:00Z,28.9818,-94.9186,1016.26,11111222 
TABS,ioos:station:wmo:42043:1,2009-01-05T00:00:00Z,28.9818,-94.9186,1016.52,11111222 
TABS,ioos:station:wmo:42043:1,2009-01-05T00:30:00Z,28.9818,-94.9186,1017.16,11111222 
TABS,ioos:station:wmo:42043:1,2009-01-05T01:00:00Z,28.9818,-94.9186,1017.51,11111222 
TABS,ioos:station:wmo:42043:1,2009-01-05T01:30:00Z,28.9818,-94.9186,1017.71,11111222 
TABS,ioos:station:wmo:42043:1,2009-01-05T02:00:00Z,28.9818,-94.9186,1018.36,11111222 
TABS,ioos:station:wmo:42043:1,2009-01-05T02:30:00Z,28.9818,-94.9186,1018.63,11111222 
TABS,ioos:station:wmo:42043:1,2009-01-05T03:00:00Z,28.9818,-94.9186,1018.91,11111222 
TABS,ioos:station:wmo:42043:1,2009-01-05T03:30:00Z,28.9818,-94.9186,1019.12,11111222 
TABS,ioos:station:wmo:42043:1,2009-01-05T04:00:00Z,28.9818,-94.9186,1019.8,11111222 
TABS,ioos:station:wmo:42043:1,2009-01-05T04:30:00Z,28.9818,-94.9186,1019.62,11111222 
TABS,ioos:station:wmo:42043:1,2009-01-05T05:00:00Z,28.9818,-94.9186,1019.64,11111222 
TABS,ioos:station:wmo:42043:1,2009-01-05T05:30:00Z,28.9818,-94.9186,1019.67,11111222 
TABS,ioos:station:wmo:42043:1,2009-01-05T06:00:00Z,28.9818,-94.9186,1019.79,11111222 
TABS,ioos:station:wmo:42043:1,2009-01-05T06:30:00Z,28.9818,-94.9186,1019.74,11111222 
TABS,ioos:station:wmo:42043:1,2009-01-05T07:00:00Z,28.9818,-94.9186,1019.41,11111222 
TABS,ioos:station:wmo:42043:1,2009-01-05T07:30:00Z,28.9818,-94.9186,1019.3,11111222 
TABS,ioos:station:wmo:42043:1,2009-01-05T08:00:00Z,28.9818,-94.9186,1019.16,11111222 
TABS,ioos:station:wmo:42043:1,2009-01-05T08:30:00Z,28.9818,-94.9186,1019.02,11111222 
TABS,ioos:station:wmo:42043:1,2009-01-05T09:00:00Z,28.9818,-94.9186,1018.83,11111222 
TABS,ioos:station:wmo:42043:1,2009-01-05T09:30:00Z,28.9818,-94.9186,1018.74,11111222 
TABS,ioos:station:wmo:42043:1,2009-01-05T10:00:00Z,28.9818,-94.9186,1018.83,11111222 
TABS,ioos:station:wmo:42043:1,2009-01-05T10:30:00Z,28.9818,-94.9186,1018.51,11111222 
TABS,ioos:station:wmo:42043:1,2009-01-05T11:00:00Z,28.9818,-94.9186,1018.61,11111222 
TABS,ioos:station:wmo:42043:1,2009-01-05T11:30:00Z,28.9818,-94.9186,1018.16,11111222 
TABS,ioos:station:wmo:42043:1,2009-01-05T12:00:00Z,28.9818,-94.9186,1018.64,11111222 
TABS,ioos:station:wmo:42043:1,2009-01-05T12:30:00Z,28.9818,-94.9186,1018.86,11111222 
TABS,ioos:station:wmo:42043:1,2009-01-05T13:00:00Z,28.9818,-94.9186,1019.18,11111222 
TABS,ioos:station:wmo:42043:1,2009-01-05T13:30:00Z,28.9818,-94.9186,1019.05,11111222 
TABS,ioos:station:wmo:42043:1,2009-01-05T14:00:00Z,28.9818,-94.9186,1019.22,11111222 
TABS,ioos:station:wmo:42043:1,2009-01-05T14:30:00Z,28.9818,-94.9186,1019.33,11111222 
TABS,ioos:station:wmo:42043:1,2009-01-05T15:00:00Z,28.9818,-94.9186,1019.67,11111222 
TABS,ioos:station:wmo:42043:1,2009-01-05T15:30:00Z,28.9818,-94.9186,1019.1,11111222 
TABS,ioos:station:wmo:42043:1,2009-01-05T16:00:00Z,28.9818,-94.9186,1019.35,11111222 
TABS,ioos:station:wmo:42043:1,2009-01-05T16:30:00Z,28.9818,-94.9186,1018.81,11111222 
TABS,ioos:station:wmo:42043:1,2009-01-05T17:00:00Z,28.9818,-94.9186,1018.55,11111222 
TABS,ioos:station:wmo:42043:1,2009-01-05T17:30:00Z,28.9818,-94.9186,1017.52,11111222 
TABS,ioos:station:wmo:42043:1,2009-01-05T18:00:00Z,28.9818,-94.9186,1016.56,11111222 
TABS,ioos:station:wmo:42043:1,2009-01-05T18:30:00Z,28.9818,-94.9186,1016.24,11111222 
TABS,ioos:station:wmo:42043:1,2009-01-05T19:00:00Z,28.9818,-94.9186,1015.41,11111222 
TABS,ioos:station:wmo:42043:1,2009-01-05T19:30:00Z,28.9818,-94.9186,1014.96,11111222 
TABS,ioos:station:wmo:42043:1,2009-01-05T20:00:00Z,28.9818,-94.9186,1014.77,11111222 
TABS,ioos:station:wmo:42043:1,2009-01-05T20:30:00Z,28.9818,-94.9186,1014.34,11111222 
TABS,ioos:station:wmo:42043:1,2009-01-05T21:00:00Z,28.9818,-94.9186,1013.98,11111222 
TABS,ioos:station:wmo:42043:1,2009-01-05T21:30:00Z,28.9818,-94.9186,1013.88,11111222 
TABS,ioos:station:wmo:42043:1,2009-01-05T22:00:00Z,28.9818,-94.9186,1014.01,11111222 
TABS,ioos:station:wmo:42043:1,2009-01-05T22:30:00Z,28.9818,-94.9186,1013.65,11111222 
TABS,ioos:station:wmo:42043:1,2009-01-05T23:00:00Z,28.9818,-94.9186,1013.82,11111222 
TABS,ioos:station:wmo:42043:1,2009-01-05T23:30:00Z,28.9818,-94.9186,1013.62,11111222 
TABS,ioos:station:wmo:42043:1,2009-01-06T00:00:00Z,28.9818,-94.9186,1013.79,11111222 
TABS,ioos:station:wmo:42043:1,2009-01-06T00:30:00Z,28.9818,-94.9186,1013.62,11111222 
TABS,ioos:station:wmo:42043:1,2009-01-06T01:00:00Z,28.9818,-94.9186,1013.42,11111222 
TABS,ioos:station:wmo:42043:1,2009-01-06T01:30:00Z,28.9818,-94.9186,1013.43,11111222 
TABS,ioos:station:wmo:42043:1,2009-01-06T02:00:00Z,28.9818,-94.9186,1013.32,11111222 
TABS,ioos:station:wmo:42043:1,2009-01-06T02:30:00Z,28.9818,-94.9186,1013.5,11111222 
TABS,ioos:station:wmo:42043:1,2009-01-06T03:00:00Z,28.9818,-94.9186,1012.99,11111222 
TABS,ioos:station:wmo:42043:1,2009-01-06T03:30:00Z,28.9818,-94.9186,1012.9,11111222 
TABS,ioos:station:wmo:42043:1,2009-01-06T04:00:00Z,28.9818,-94.9186,1013.14,11111222 
TABS,ioos:station:wmo:42043:1,2009-01-06T04:30:00Z,28.9818,-94.9186,1012.81,11111222 
TABS,ioos:station:wmo:42043:1,2009-01-06T05:00:00Z,28.9818,-94.9186,1012.32,11111222 
TABS,ioos:station:wmo:42043:1,2009-01-06T05:30:00Z,28.9818,-94.9186,1011.75,11111222 
TABS,ioos:station:wmo:42043:1,2009-01-06T06:00:00Z,28.9818,-94.9186,1011.22,11111222 
TABS,ioos:station:wmo:42043:1,2009-01-06T06:30:00Z,28.9818,-94.9186,1010.58,11111222 
TABS,ioos:station:wmo:42043:1,2009-01-06T07:00:00Z,28.9818,-94.9186,1009.9,11111222 
TABS,ioos:station:wmo:42043:1,2009-01-06T07:30:00Z,28.9818,-94.9186,1009.63,11111222 
TABS,ioos:station:wmo:42043:1,2009-01-06T08:00:00Z,28.9818,-94.9186,1009.6,11111222 
TABS,ioos:station:wmo:42043:1,2009-01-06T08:30:00Z,28.9818,-94.9186,1008.39,11111222 
TABS,ioos:station:wmo:42043:1,2009-01-06T09:00:00Z,28.9818,-94.9186,1008.01,11111222 
TABS,ioos:station:wmo:42043:1,2009-01-06T09:30:00Z,28.9818,-94.9186,1008.29,11111222 
TABS,ioos:station:wmo:42043:1,2009-01-06T10:00:00Z,28.9818,-94.9186,1007.9,11111222 
TABS,ioos:station:wmo:42043:1,2009-01-06T10:30:00Z,28.9818,-94.9186,1007.4,11111222 
TABS,ioos:station:wmo:42043:1,2009-01-06T11:00:00Z,28.9818,-94.9186,1007.52,11111222 
TABS,ioos:station:wmo:42043:1,2009-01-06T11:30:00Z,28.9818,-94.9186,1007.54,11111222 
TABS,ioos:station:wmo:42043:1,2009-01-06T12:00:00Z,28.9818,-94.9186,1007.38,11111222 
TABS,ioos:station:wmo:42043:1,2009-01-06T12:30:00Z,28.9818,-94.9186,1006.88,11111222 
TABS,ioos:station:wmo:42043:1,2009-01-06T13:00:00Z,28.9818,-94.9186,1007.44,11111222 
TABS,ioos:station:wmo:42043:1,2009-01-06T13:30:00Z,28.9818,-94.9186,1006.98,11111222 
TABS,ioos:station:wmo:42043:1,2009-01-06T14:00:00Z,28.9818,-94.9186,1007.44,11111222 
TABS,ioos:station:wmo:42043:1,2009-01-06T14:30:00Z,28.9818,-94.9186,1008.39,11111222 
TABS,ioos:station:wmo:42043:1,2009-01-06T15:00:00Z,28.9818,-94.9186,1008.3,11111222 
TABS,ioos:station:wmo:42043:1,2009-01-06T15:30:00Z,28.9818,-94.9186,1008.72,11111222 
TABS,ioos:station:wmo:42043:1,2009-01-06T16:00:00Z,28.9818,-94.9186,1009.25,11111222 
TABS,ioos:station:wmo:42043:1,2009-01-06T16:30:00Z,28.9818,-94.9186,1009.3,11111222 
TABS,ioos:station:wmo:42043:1,2009-01-06T17:00:00Z,28.9818,-94.9186,1009.18,11111222 
TABS,ioos:station:wmo:42043:1,2009-01-06T17:30:00Z,28.9818,-94.9186,1008.82,11111222 
TABS,ioos:station:wmo:42043:1,2009-01-06T18:00:00Z,28.9818,-94.9186,1007.96,11111222 
TABS,ioos:station:wmo:42043:1,2009-01-06T18:30:00Z,28.9818,-94.9186,1006.72,11111222 